Zurück zum Katalog

AIRSAT-05

AktivWissenschaftSSO
NORAD 65259·PAYLOAD·🇨🇳 China
Dieser Satellitenname wurde noch nicht durch offizielle Quellen bestätigt.

Gestartet Aug 19, 2025 von Jiuquan Satellite Launch Center

Loading…

Nächste Überflüge (nächste 24 Stunden)

TLE

AktuellSource: Space-Track

Epoche: Sep 14, 2026, 08:38 UTC

1 65259U 25180A   26257.36017205  .00003161  00000-0  12879-3 0  9990
2 65259  97.5307  26.5208 0011540   9.6976 350.4482 15.25180574 59379

Verfolge AIRSAT-05 in Echtzeit mit AllMySat

Download on the App Store